Weather in Zheldets

Ukraine / Lviv District     50°06′30″N   24°10′31″E
temp.,
°C
wind,
m/s
gust,
m/s
humid.,
%
clouds,
%
prec.,
mm/h
press.,
hPa
HPBL,
m
31 july, sat
sat3100:00+19s37700 0.0 1010100
03:00+18sw35810 0.0 101077
06:00+18sw33792 0.0 100930
09:00+22ssw336838 0.0 1010182
12:00+28sw455028 0.0 1009976
15:00+29sw344542 0.0 10081577
18:00+24nw566899 0.5 1008241
21:00+18n61097100 10.5 1009247
1 august, sun
sun100:00+18n009777 1.8 101133
03:00+18sw249775 1.8 1011177
06:00+15w22952 0.0 101115
09:00+20ssw11802 0.0 1011229
12:00+24sse336321 0.0 1010724
15:00+28sse3449100 0.0 10091153
18:00+27se610585 0.0 1005692
21:00+25sse7136544 0.0 1004489
2 august, mon
mon200:00+21ssw51184100 1.0 1005291
03:00+17wsw469560 1.3 1006108
06:00+17w410979 0.0 1007276
09:00+17wnw5990100 0.0 1008594
12:00+17wnw4792100 0.4 1010550
15:00+16w4789100 0.6 1012517
18:00+17w478293 0.0 1012611
21:00+15w369015 0.0 1013192
3 august, tue
tue300:00+14wsw3694100 0.0 1014114
03:00+13w349524 0.0 101568
06:00+12wsw33934 0.0 101538
09:00+17w34760 0.0 1016367
12:00+21w456210 0.3 10161348
15:00+23w465276 1.3 10152100
18:00+22nw246339 0.0 1015447
21:00+18ne11730 0.1 101511
4 august, wed
wed400:00+16se337991 0.0 101623
03:00+16sse3477100 0.0 101557
06:00+14se338517 0.1 101538
09:00+19s4773100 0.1 1015276
12:00+25ssw3452100 0.0 1014736
15:00+27ssw3545100 0.0 10131865
18:00+24sse5862100 0.0 1013311
21:00+19se3972100 0.1 1013171